GEFSSE_con_cape1000_054.txt.gz
Probability
90 100 100 100 100 100 100 100 100 100 100 100 100 100 100 100 100 100 100 100 100 100 100 100 100 100 100 100 100 100 100 100 100 100 100 100 100 100 100 100 100 97 100
90 100 100 100 100 100 100 100 100 100 100 100 100 100 100 100 100 100 100 100 100 100 100 100 100 100 100 97 100 100 100 100 100 100 100 100 100 100 100 100 100 97 100
97 100 100 100 100 100 100 100 100 100 100 100 100 100 100 100 100 100 100 100 100 100 100 100 100 100 97 94 100 100 100 100 100 100 100 87 100 100 100 100 100 100 100
100 100 100 100 100 100 100 100 100 100 100 100 100 100 100 100 100 100 100 100 100 97 97 100 90 100 100 97 94 97 100 100 100 100 71 77 94 100 100 100 100 100 100
94 97 100 100 100 100 100 100 100 100 100 100 100 100 100 100 100 100 100 100 100 97 97 97 94 90 100 97 97 97 97 97 100 97 55 42 87 100 100 100 100 100 100
90 100 100 100 100 100 100 100 100 100 100 100 100 100 100 100 100 100 100 100 100 97 97 97 94 87 90 94 97 97 97 97 97 74 29 39 87 100 100 100 100 100 100
90 100 100 100 100 100 100 100 100 100 100 100 100 100 100 100 100 100 100 100 100 100 97 97 97 94 90 90 94 94 97 97 87 55 23 23 87 100 100 100 100 100 100
90 100 100 100 100 100 100 100 100 100 100 100 100 100 100 100 100 100 100 100 100 100 100 97 94 97 100 97 97 100 100 100 90 55 32 19 90 100 100 100 100 100 100
90 97 100 100 100 100 100 100 100 100 100 100 100 100 100 100 100 100 100 100 100 100 100 100 97 97 97 100 100 100 100 100 90 42 48 23 100 100 100 100 100 100 100
94 100 100 100 100 100 100 100 100 100 100 100 100 100 100 100 100 100 100 100 100 100 100 100 100 100 100 100 100 100 100 100 87 61 29 35 100 100 100 100 100 100 100
94 90 94 94 94 97 100 100 100 100 100 100 100 100 100 100 100 100 100 100 100 100 100 100 100 100 100 100 100 100 100 97 65 32 10 52 97 100 100 100 100 100 100
81 84 90 94 94 94 97 97 97 100 100 100 100 100 100 100 94 97 97 100 100 100 100 100 100 100 100 97 100 100 100 94 55 29 10 52 97 100 100 100 100 100 100
81 87 87 87 87 90 90 94 90 90 94 94 97 94 97 100 97 97 90 94 97 97 94 97 94 94 97 97 97 97 94 87 52 32 13 65 100 100 100 100 100 100 100
81 81 87 81 84 81 81 74 71 74 77 81 77 81 81 81 71 68 65 65 77 77 84 84 87 87 84 87 84 74 71 74 48 23 10 58 100 100 100 100 100 100 100
65 65 71 68 68 61 58 61 61 65 71 71 71 74 68 68 61 58 58 58 61 65 58 61 68 71 71 77 71 58 58 45 42 35 19 48 94 100 100 100 100 100 100
45 42 45 52 42 45 39 39 48 48 55 55 48 45 48 48 42 48 45 39 42 39 35 39 42 42 48 52 52 48 42 39 32 32 26 29 94 97 97 97 97 97 90
29 32 32 26 19 19 19 26 32 29 26 23 29 32 35 35 29 26 26 26 26 23 16 10 13 13 16 16 26 26 26 29 23 26 13 13 52 81 94 94 94 90 84
19 16 13 19 16 13 10 10 23 23 13 13 13 16 19 19 13 16 13 13 16 10 10 3 6 0 0 0 3 6 6 6 19 23 16 16 16 35 81 90 90 87 81
13 10 0 3 3 6 3 3 6 10 16 13 10 6 10 10 6 0 0 0 0 3 0 0 0 0 0 0 0 0 0 3 3 6 3 6 6 6 10 45 84 81 81
10 3 3 0 0 3 0 0 0 0 0 6 10 6 10 6 0 0 0 0 0 0 0 0 0 0 0 0 0 0 0 0 0 0 3 0 3 6 6 10 29 45 81
10 10 3 3 3 0 0 0 0 0 0 0 0 0 0 0 0 0 0 0 0 0 0 3 0 0 0 0 0 0 0 0 0 0 0 0 0 3 3 6 6 6 13
10 3 3 3 0 0 0 0 0 0 0 0 0 0 0 0 0 0 0 0 0 0 0 0 0 0 0 0 0 0 0 0 0 0 0 0 0 0 0 3 6 6 3
3 0 3 0 0 0 0 0 0 0 0 0 0 0 0 0 0 0 0 0 0 0 0 0 0 0 0 0 0 0 0 0 0 0 0 0 0 0 0 0 3 3 3
0 0 0 0 0 0 0 0 0 0 0 0 0 0 0 0 0 0 0 0 0 0 0 0 0 0 0 0 0 0 0 0 0 0 0 0 0 0 0 0 0 3 3
0 0 0 0 0 0 0 0 0 0 0 0 0 0 0 0 0 0 0 0 0 0 0 0 0 0 0 0 0 0 0 0 0 0 0 0 0 0 0 0 0 0 0
0 0 0 0 0 0 0 0 0 0 0 0 0 0 0 0 0 0 0 0 0 0 0 0 0 0 0 0 0 0 0 0 0 0 0 0 0 0 0 0 0 0 0

GEFSSE_con_cape1000_060.txt.gz
Probability
87 100 100 100 100 100 100 100 100 100 100 100 100 100 100 100 100 100 100 100 100 100 100 97 97 100 97 100 100 100 100 100 100 100 100 100 100 100 100 100 100 100 100
90 100 100 100 100 100 100 100 100 100 100 100 100 100 100 100 100 100 100 100 100 100 100 100 100 97 97 97 100 100 100 100 100 100 100 100 100 100 100 100 100 97 100
100 100 100 100 100 100 100 100 100 100 100 100 100 100 100 100 100 100 100 100 100 100 97 97 97 90 94 94 100 100 100 100 100 100 100 100 100 100 100 100 100 100 100
100 100 100 100 100 100 100 100 100 100 100 100 100 100 100 100 100 100 100 100 100 100 97 97 100 94 90 97 100 100 100 100 100 100 100 100 100 100 100 100 100 100 100
100 100 100 100 100 100 100 100 100 100 100 100 100 100 100 100 100 100 100 100 100 100 97 97 97 100 97 94 97 97 97 100 100 97 84 90 100 100 100 100 100 100 100
100 100 100 100 100 100 100 100 100 100 100 100 100 100 100 100 100 100 100 100 100 100 100 94 94 97 100 97 97 97 97 97 100 65 74 84 100 100 100 100 100 100 100
100 100 100 100 100 100 100 100 100 100 100 100 100 100 100 100 100 100 100 100 100 97 100 97 94 97 97 100 97 97 97 97 71 61 65 81 94 100 100 100 100 100 100
100 100 100 100 100 100 100 100 100 100 100 100 100 100 100 100 100 100 100 100 100 100 100 97 100 100 100 97 97 100 100 100 94 74 71 77 94 100 100 100 100 100 100
100 100 97 100 100 100 100 100 100 100 100 100 100 100 100 100 100 100 100 100 100 100 100 100 100 100 100 100 100 100 100 100 87 77 65 68 90 100 100 100 100 100 100
97 94 94 97 97 100 100 100 100 100 100 100 100 100 100 100 100 100 100 100 100 100 100 100 100 97 97 100 100 100 100 100 87 74 84 61 100 100 100 100 100 100 100
94 90 87 87 97 97 97 97 97 97 97 97 97 100 100 100 100 100 100 100 100 100 100 100 100 100 100 100 100 100 100 100 87 71 65 74 100 100 100 100 100 100 100
87 90 87 87 87 87 94 94 94 94 94 97 94 94 97 97 97 100 97 100 100 100 100 100 100 100 100 100 100 100 97 97 97 84 71 81 100 100 100 100 100 100 100
84 94 94 94 90 94 94 94 90 87 84 84 81 81 84 84 81 81 84 81 74 74 77 81 90 90 87 84 84 90 90 97 94 87 68 87 94 94 100 100 100 100 100
81 77 81 84 84 74 71 71 74 74 74 71 74 74 71 71 71 68 68 65 58 61 61 65 68 74 68 77 81 81 81 81 81 81 61 87 94 100 100 100 100 100 100
68 68 58 58 55 58 55 48 55 52 58 61 58 55 58 55 52 48 48 45 48 48 52 48 55 58 61 58 65 68 74 74 71 77 65 84 87 90 97 97 100 100 100
39 35 26 29 26 19 23 26 26 32 29 23 29 32 39 35 35 35 29 26 23 23 29 32 29 39 42 48 52 55 55 58 61 68 71 68 90 90 94 100 100 97 97
26 13 19 19 19 19 19 19 19 19 16 16 13 16 16 16 19 26 19 13 10 10 10 16 10 16 16 13 16 29 29 39 48 45 48 39 35 74 90 97 100 100 97
6 6 10 13 6 6 6 6 6 6 6 6 10 3 3 6 10 3 3 3 3 3 3 0 0 0 0 3 6 6 13 13 16 26 39 29 29 26 52 90 97 100 100
6 3 0 0 0 0 0 0 0 0 3 3 0 0 0 0 0 0 0 0 0 0 0 0 0 0 0 0 0 0 0 0 3 6 13 19 19 23 26 29 84 90 94
0 0 0 0 0 0 0 0 0 0 0 0 0 0 0 0 0 0 0 0 0 0 0 0 0 0 0 0 0 0 0 0 0 0 0 3 13 10 13 19 29 58 84
0 0 0 0 0 0 0 0 0 0 0 0 0 0 0 0 0 0 0 0 0 0 0 0 0 0 0 0 0 0 0 0 0 0 0 0 3 6 6 10 19 16 29
0 0 0 0 0 0 0 0 0 0 0 0 0 0 0 0 0 0 0 0 0 0 0 0 0 0 0 0 0 0 0 0 0 0 0 0 0 3 0 0 6 13 13
0 0 0 0 0 0 0 0 0 0 0 0 0 0 0 0 0 0 0 0 0 0 0 0 0 0 0 0 0 0 0 0 0 0 0 0 0 0 0 3 0 10 6
0 0 0 0 0 0 0 0 0 0 0 0 0 0 0 0 0 0 0 0 0 0 0 0 0 0 0 0 0 0 0 0 0 0 0 0 0 0 0 0 0 0 3
0 0 0 0 0 0 0 0 0 0 0 0 0 0 0 0 0 0 0 0 0 0 0 0 0 0 0 0 0 0 0 0 0 0 0 0 0 0 0 0 0 0 0
0 0 0 0 0 0 0 0 0 0 0 0 0 0 0 0 0 0 0 0 0 0 0 0 0 0 0 0 0 0 0 0 0 0 0 0 0 0 0 0 0 0 0

GEFSSE_con_cape1000_066.txt.gz
Probability
84 100 100 100 100 100 100 100 100 100 100 100 100 100 100 100 100 100 100 100 100 97 90 94 90 97 97 100 100 100 100 100 100 100 97 100 100 100 100 100 97 94 100
84 100 100 100 100 100 100 100 100 100 100 100 100 100 100 100 100 100 100 100 100 97 97 94 94 94 97 100 100 100 100 100 100 100 100 100 100 100 100 97 97 97 100
97 100 100 100 100 100 100 100 100 100 100 100 100 100 100 100 100 100 100 100 100 97 97 97 94 97 94 97 94 100 100 100 100 100 100 100 100 100 100 100 100 100 100
97 100 100 100 100 100 100 100 100 100 100 100 100 100 100 100 100 100 100 100 97 97 97 97 94 94 94 97 94 97 97 97 100 100 100 97 100 100 100 100 100 100 100
100 100 100 100 100 100 100 100 100 100 100 100 100 100 100 100 100 100 100 100 97 97 97 97 97 94 90 94 97 100 97 100 94 100 100 100 100 100 100 100 100 100 100
100 100 100 100 100 100 100 100 100 100 100 100 100 100 100 100 100 100 100 100 97 97 97 97 94 94 94 94 100 100 97 97 97 58 81 87 100 100 100 100 100 100 100
94 100 100 100 100 100 100 100 100 100 100 100 100 100 100 100 100 100 100 100 100 97 97 97 94 94 97 97 94 100 100 100 94 45 68 74 100 100 100 100 100 100 100
90 97 100 100 100 100 100 100 100 100 100 100 100 100 100 100 100 100 100 100 100 100 100 100 97 97 97 94 97 97 100 100 87 61 71 84 100 100 100 100 100 100 100
87 97 100 100 100 100 100 100 100 100 100 100 100 100 100 100 100 100 100 100 100 100 100 100 100 97 100 100 100 100 100 100 100 90 71 94 100 100 100 100 100 100 100
87 97 97 97 97 100 97 97 97 97 97 97 100 100 100 100 100 100 100 100 100 100 100 100 100 100 100 100 100 100 100 100 90 74 87 100 100 100 100 100 100 100 100
90 90 94 97 94 94 90 97 97 97 97 97 97 97 100 100 100 100 97 100 100 94 97 94 94 97 100 97 97 97 97 87 65 81 90 100 100 100 100 100 100 100 100
94 94 94 94 94 90 84 94 94 94 97 97 97 100 100 94 90 90 87 90 90 90 87 84 87 87 94 90 94 94 87 81 58 71 90 100 97 100 100 100 100 100 100
94 87 87 97 94 90 90 87 87 90 90 90 94 94 94 87 87 90 87 90 81 77 77 77 81 84 87 90 87 90 90 71 68 58 68 100 100 100 100 100 100 100 100
84 90 87 90 94 94 90 90 90 87 87 87 87 87 84 81 81 77 84 77 74 71 77 77 77 77 81 90 84 87 84 84 87 68 97 100 100 100 100 100 100 100 100
94 87 87 94 94 94 90 87 84 81 68 74 71 61 65 65 68 61 55 58 58 58 58 55 58 65 71 71 81 71 74 84 84 77 84 97 97 97 94 97 97 97 100
94 94 94 90 87 87 84 87 81 77 74 61 55 48 48 42 45 45 42 39 35 29 35 42 39 35 45 52 61 68 74 74 77 84 77 97 94 94 94 94 97 97 97
90 90 84 81 81 81 81 71 55 48 42 29 32 26 26 26 26 19 23 26 29 32 29 29 29 35 32 35 35 42 58 68 68 77 77 81 77 87 90 90 97 94 94
81 90 77 58 68 74 74 61 39 29 29 19 19 16 19 13 6 10 10 10 13 16 13 19 19 23 23 26 26 32 39 61 61 61 65 77 74 71 84 90 90 94 90
81 87 77 61 58 55 52 48 35 32 26 23 16 13 6 10 3 3 3 3 3 3 6 3 6 6 6 13 16 19 26 39 42 42 48 58 61 71 65 68 90 90 84
58 55 55 55 58 55 32 35 23 16 16 13 6 6 6 6 3 3 3 3 3 3 0 0 0 0 6 6 3 3 10 10 26 32 35 39 39 39 48 55 68 71 81
45 55 52 48 55 45 35 23 16 10 6 3 3 3 0 3 3 3 0 0 0 0 0 0 0 0 0 0 0 0 0 3 6 29 29 26 23 16 29 52 58 55 61
39 42 35 52 39 35 26 19 13 6 3 3 3 3 0 0 0 0 0 0 0 0 0 0 0 0 0 0 0 0 0 0 6 0 13 19 19 26 26 13 32 52 55
35 39 16 35 35 32 19 3 3 3 3 0 0 0 0 0 0 0 0 0 0 0 0 0 0 0 0 0 0 0 0 0 0 0 0 0 10 19 19 23 19 29 29
35 32 26 32 39 29 16 3 3 3 6 3 0 0 0 0 0 0 0 0 0 0 0 0 0 0 0 0 0 0 0 0 0 0 0 0 0 3 3 0 6 3 19
29 29 35 48 48 32 23 13 16 6 3 0 0 0 0 0 0 0 0 0 0 0 0 0 0 0 0 0 0 0 0 0 0 0 0 0 0 0 0 0 3 6 13
35 35 35 45 48 35 26 16 16 10 6 3 3 0 0 0 0 0 0 0 0 0 0 0 0 0 0 0 0 0 0 0 0 0 0 0 0 0 0 0 0 6 10

GEFSSE_con_cape1000_072.txt.gz
Probability
94 97 100 100 100 100 100 100 100 100 100 100 100 100 100 100 100 100 100 97 100 94 97 90 90 100 100 100 100 94 100 100 97 94 97 97 97 97 97 100 100 97 100
97 100 100 100 100 100 100 100 100 100 100 100 100 100 100 100 100 100 100 97 100 100 97 90 90 100 100 100 97 94 100 94 94 94 97 100 97 100 97 100 100 94 100
100 100 100 100 100 100 100 100 100 100 100 100 100 100 100 100 100 100 100 97 94 90 97 87 90 94 97 97 97 97 97 94 94 97 100 97 100 97 97 100 100 100 100
97 100 100 100 100 100 100 100 100 100 100 100 100 100 100 100 100 100 100 97 97 97 94 94 90 94 87 94 97 97 97 97 97 100 100 100 94 100 100 100 100 100 100
100 100 100 100 100 100 100 100 100 100 100 100 100 100 100 100 100 100 100 100 97 97 94 97 90 94 90 97 97 100 90 97 97 100 100 100 100 100 100 100 100 100 97
100 100 100 100 100 100 100 100 100 100 100 100 100 100 100 100 100 100 100 97 97 97 97 97 97 87 94 84 97 100 100 100 100 97 100 100 100 100 100 100 94 97 97
100 100 100 100 100 100 100 100 100 100 100 100 100 100 100 100 100 100 100 100 97 97 97 97 97 94 97 90 94 97 100 100 100 100 100 100 100 100 100 100 100 100 100
100 100 100 100 100 100 100 100 100 100 100 100 100 100 100 100 100 100 100 100 100 100 100 97 97 87 90 94 90 100 100 100 97 74 97 100 100 100 100 100 100 100 100
100 100 100 100 100 100 100 100 97 97 97 100 100 100 100 100 100 100 100 100 100 100 100 97 100 97 97 97 97 100 100 100 100 97 97 100 100 100 100 100 100 100 100
100 100 100 100 100 97 97 97 97 97 97 97 100 100 100 100 100 100 100 100 100 97 94 94 94 94 97 97 97 97 100 100 90 52 90 97 100 100 100 100 100 100 100
100 100 100 97 94 94 94 94 94 97 97 97 97 97 100 100 97 97 97 94 90 94 94 94 94 94 94 94 97 100 100 97 58 45 81 100 100 100 100 100 100 100 100
97 94 90 94 94 94 94 94 94 94 94 97 94 94 97 100 90 84 90 90 90 94 97 94 94 90 87 90 94 97 94 87 55 42 90 97 100 100 100 100 100 100 100
94 94 94 94 94 94 94 90 90 90 90 90 87 87 90 87 87 84 90 87 90 90 87 87 87 81 81 84 87 81 81 68 45 39 81 94 94 97 100 100 100 100 100
94 90 90 94 94 94 94 94 90 84 87 84 90 81 84 84 84 77 74 71 74 77 84 68 77 77 65 77 74 81 81 71 58 55 68 81 87 94 97 100 100 100 100
94 94 94 94 94 94 94 94 87 84 77 74 77 74 68 74 61 52 68 65 61 61 58 61 58 48 48 52 61 58 61 71 61 65 65 81 84 94 90 100 100 100 100
94 94 94 94 94 94 90 87 84 74 74 71 71 61 48 48 52 48 55 55 58 55 48 48 39 35 29 39 35 42 58 58 74 68 74 71 81 90 94 97 100 100 100
94 90 94 90 90 90 87 81 68 65 55 52 55 39 32 32 32 32 32 35 39 45 45 42 35 35 35 32 35 42 45 55 55 61 68 68 71 71 84 94 100 100 100
94 94 90 84 81 84 84 77 65 45 52 48 42 26 23 19 19 23 23 26 23 19 23 26 29 23 35 39 29 32 35 35 32 48 55 61 58 65 68 90 97 97 100
97 94 90 87 84 74 65 58 65 65 58 32 29 23 16 6 6 6 6 6 6 6 10 6 10 10 10 16 10 19 23 23 26 26 32 35 48 58 58 71 87 90 97
97 97 90 87 77 65 71 71 61 39 32 26 26 23 10 0 0 0 3 3 3 6 3 6 3 6 0 6 0 0 10 10 16 16 19 26 39 45 45 48 65 61 87
90 94 90 87 77 77 71 71 81 61 42 32 26 13 3 0 0 0 0 0 0 0 0 0 0 0 0 3 0 0 0 0 6 13 29 26 26 35 39 52 55 65 61
97 100 94 84 81 77 81 77 81 68 45 42 26 19 3 6 0 0 3 0 0 0 0 0 0 0 0 0 0 0 0 0 3 0 16 35 23 32 26 13 42 55 58
84 90 61 84 81 81 74 65 58 58 58 52 35 23 16 10 0 0 0 0 0 0 0 0 0 0 0 0 0 0 0 0 0 6 3 6 10 29 26 32 23 32 39
74 71 94 90 87 87 65 58 58 55 39 39 32 19 16 10 0 0 0 0 0 0 0 0 0 0 0 0 0 0 0 0 0 0 0 3 3 3 19 0 3 16 26
55 65 87 94 87 74 61 61 52 48 32 29 26 16 13 6 6 3 0 0 0 0 0 0 0 0 0 0 0 0 0 0 0 0 0 0 0 3 6 3 10 16 13
55 61 65 87 87 77 68 61 48 42 32 23 19 10 10 10 6 3 0 0 0 0 0 0 0 0 0 0 0 0 0 0 0 0 0 0 0 0 3 3 6 6 10

GEFSSE_con_cape1000_078.txt.gz
Probability
100 100 100 100 100 100 100 100 100 100 100 100 100 100 100 100 100 100 100 100 100 100 100 100 100 100 100 100 100 100 100 100 100 100 100 97 97 100 100 100 100 97 100
100 100 100 100 100 100 100 100 100 100 100 100 100 100 100 100 100 100 100 100 100 100 97 97 100 100 100 100 100 100 97 94 97 100 100 97 97 100 100 100 100 97 100
100 100 100 100 100 100 100 100 100 100 100 100 100 100 100 100 100 100 100 100 100 97 100 97 97 97 100 100 100 100 97 94 97 97 100 90 97 100 100 100 100 100 100
100 100 100 100 100 100 100 100 100 100 100 100 100 100 100 100 100 100 100 100 100 100 97 97 90 94 94 94 97 100 100 97 94 97 81 84 94 100 100 100 100 100 100
100 100 100 100 100 100 100 100 100 100 100 100 100 100 100 100 100 100 100 100 97 97 100 97 90 90 94 90 97 97 97 97 97 94 74 77 94 100 100 100 100 100 100
100 100 100 100 100 100 100 100 100 100 100 100 100 100 100 100 100 100 100 100 94 94 94 97 87 90 84 84 90 94 94 97 97 81 74 71 97 100 100 100 100 100 100
100 100 100 100 100 100 100 100 100 100 100 100 100 100 100 100 97 100 100 100 100 94 94 94 90 87 87 84 84 97 97 100 87 71 58 77 97 100 100 100 100 100 100
100 100 100 100 100 100 100 100 100 100 100 100 100 100 100 100 100 100 100 100 100 97 97 100 94 90 81 87 84 97 100 100 90 81 84 77 100 100 100 100 100 100 100
100 100 100 100 97 97 97 97 97 97 97 100 100 100 100 100 100 100 100 100 100 100 97 90 90 94 97 94 90 97 97 100 58 71 87 77 100 100 100 100 100 100 100
100 97 97 97 97 97 97 97 97 97 97 97 97 97 97 97 100 100 100 100 97 97 94 94 90 90 94 94 94 97 97 94 48 32 55 81 94 97 100 100 100 100 100
90 94 94 94 94 94 94 94 97 97 97 94 94 97 97 94 94 94 97 94 90 90 94 94 97 97 97 94 94 94 97 81 45 29 29 77 84 90 94 100 100 100 100
90 94 94 94 94 94 94 94 94 94 90 87 81 87 87 81 77 81 87 87 84 84 84 87 94 94 90 81 81 90 84 65 42 26 26 84 87 90 94 94 100 100 100
94 94 94 94 94 90 90 87 84 87 81 74 71 71 65 55 52 52 52 52 58 61 58 65 65 55 55 52 42 48 58 55 32 32 29 84 87 84 87 94 97 100 100
90 94 94 90 87 84 87 87 77 74 68 58 61 48 39 32 29 29 32 32 29 26 35 32 32 39 32 32 26 23 35 39 26 19 29 81 87 77 77 84 90 94 100
90 94 87 81 81 74 71 71 65 65 58 48 39 35 23 19 19 16 13 13 16 13 13 16 19 26 16 16 13 16 16 19 19 13 13 58 71 77 77 74 81 87 97
77 87 84 77 71 68 61 61 45 48 35 32 26 13 13 13 10 6 10 6 3 6 3 3 0 6 6 6 6 10 6 3 3 6 13 26 65 77 65 71 77 87 90
77 81 71 71 58 58 48 39 32 26 23 19 13 16 13 13 13 6 3 3 3 3 0 0 0 0 0 0 0 0 0 3 3 3 10 6 19 61 74 77 77 90 94
65 71 71 68 52 39 32 29 26 23 16 10 13 13 10 6 0 0 3 3 0 0 0 0 0 0 0 0 0 0 0 0 0 0 3 10 10 13 52 81 81 87 87
61 58 55 52 35 35 29 23 16 16 13 13 6 6 6 3 0 0 0 0 0 0 0 0 0 0 0 0 0 0 0 0 0 0 0 3 3 3 3 16 68 77 77
45 45 48 45 32 32 23 13 13 10 6 3 3 3 0 0 0 0 0 0 0 0 0 0 0 0 0 0 0 0 0 0 0 0 0 0 3 3 3 3 13 29 71
39 35 39 35 29 29 13 13 10 6 6 3 0 0 0 0 0 0 0 0 0 0 0 0 0 0 0 0 0 0 0 0 0 0 0 0 0 6 3 6 0 10 10
42 39 35 32 26 26 10 3 0 0 0 3 3 0 0 0 0 0 0 0 0 0 0 0 0 0 0 0 0 0 0 0 0 0 0 0 0 0 3 6 0 3 3
32 32 32 29 26 10 10 0 0 0 0 0 0 0 0 0 0 0 0 0 0 0 0 0 0 0 0 0 0 0 0 0 0 0 0 0 0 0 0 0 0 0 0
32 29 29 23 16 6 6 0 0 0 0 0 0 0 0 0 0 0 0 0 0 0 0 0 0 0 0 0 0 0 0 0 0 0 0 0 0 0 0 0 0 0 0
32 26 19 19 13 6 3 3 0 0 0 0 0 0 0 0 0 0 0 0 0 0 0 0 0 0 0 0 0 0 0 0 0 0 0 0 0 0 0 0 0 0 0
23 23 16 19 13 10 6 3 0 0 0 0 0 0 0 0 0 0 0 0 0 0 0 0 0 0 0 0 0 0 0 0 0 0 0 0 0 0 0 0 0 0 0

GEFSSE_con_cape1000_084.txt.gz
Probability
90 100 100 100 100 100 100 100 100 100 100 100 100 100 100 100 100 100 100 100 100 100 100 100 100 94 94 100 97 94 94 100 94 94 90 90 90 97 97 97 97 94 97
97 100 100 100 100 100 100 100 100 100 100 100 100 100 100 100 100 100 100 100 100 97 100 100 94 94 97 100 97 94 94 100 97 97 97 94 94 97 100 97 97 97 100
97 100 100 100 100 100 100 100 100 100 100 100 100 100 100 100 100 100 100 100 100 100 97 94 90 97 97 100 97 97 97 97 100 100 97 97 94 97 94 97 97 97 100
100 100 100 100 100 100 100 100 100 100 100 100 100 100 100 100 100 100 100 97 94 94 90 90 94 90 94 97 94 94 97 97 100 100 84 90 90 97 97 97 97 100 100
100 100 100 100 100 100 100 100 100 100 100 100 100 100 100 100 100 97 97 94 94 84 87 87 87 87 94 94 94 97 100 100 100 94 87 87 97 100 100 97 100 100 100
100 100 100 100 100 100 100 100 100 100 100 100 100 100 100 100 100 100 97 94 94 97 94 87 84 87 87 94 94 97 100 100 97 81 90 87 100 97 100 100 100 100 100
100 100 100 100 100 100 100 100 100 100 100 100 100 100 100 100 100 100 97 94 94 97 97 94 90 87 84 87 94 94 97 97 84 77 84 90 97 100 100 100 100 100 100
100 100 100 100 100 100 100 100 100 100 100 100 100 100 100 100 97 100 100 100 97 94 100 94 94 90 84 84 87 97 97 94 81 77 94 90 97 100 100 100 100 100 100
100 97 97 97 97 97 97 97 100 100 100 100 100 100 100 100 100 100 100 100 97 97 94 97 94 94 90 97 94 94 94 94 55 84 77 97 100 100 100 100 100 100 100
97 97 97 97 97 97 97 97 97 97 97 97 97 97 97 100 100 100 100 97 97 97 90 90 90 90 97 97 97 94 94 81 52 61 81 87 100 100 100 100 100 100 100
87 90 94 94 94 94 94 94 94 94 94 94 94 97 90 87 84 90 94 97 97 94 90 94 94 90 90 94 94 94 90 61 45 45 68 81 100 100 100 100 100 100 100
84 87 90 94 94 94 94 94 94 90 87 90 87 87 77 71 71 74 77 84 84 87 84 87 84 81 77 65 68 71 58 58 52 35 55 84 97 97 100 100 100 100 100
65 84 84 94 90 94 94 87 84 81 77 71 65 58 52 42 39 39 42 45 42 52 42 45 48 48 42 42 42 35 42 48 48 35 35 84 90 97 100 100 100 100 100
61 68 90 90 87 87 84 81 71 68 58 48 42 42 35 23 26 23 16 29 29 32 29 29 29 32 39 35 35 26 29 19 23 32 29 61 84 90 97 100 100 100 100
55 65 81 84 77 74 68 65 68 55 52 35 32 26 23 23 19 10 10 10 10 10 13 19 16 26 23 19 19 23 16 16 19 19 26 39 65 87 94 94 97 100 100
45 61 65 71 65 61 61 52 48 48 32 32 29 23 19 13 10 10 6 6 3 3 3 3 0 3 3 6 6 3 6 6 16 16 16 26 42 68 74 84 77 84 94
52 58 55 52 52 42 42 35 29 32 26 23 13 13 10 10 6 3 3 0 0 0 0 0 0 0 0 0 0 0 0 0 3 3 6 10 19 42 65 77 77 71 77
52 48 58 61 32 26 19 19 16 16 23 16 6 6 10 0 0 0 0 0 0 0 0 0 0 0 0 0 0 0 0 0 0 0 3 6 10 16 26 58 71 71 71
48 45 42 35 26 23 16 13 13 10 10 6 3 3 3 0 0 0 0 0 0 0 0 0 0 0 0 0 0 0 0 0 0 0 0 3 6 10 10 13 35 65 55
42 29 32 26 19 10 6 3 3 3 3 0 0 0 0 0 0 0 0 0 0 0 0 0 0 0 0 0 0 0 0 0 0 0 0 0 3 6 6 3 10 16 32
35 29 23 19 10 6 3 3 3 3 0 0 0 0 0 0 0 0 0 0 0 0 0 0 0 0 0 0 0 0 0 0 0 0 0 0 0 0 6 3 13 13 16
29 23 19 13 6 3 3 3 0 0 0 0 0 0 0 0 0 0 0 0 0 0 0 0 0 0 0 0 0 0 0 0 0 0 0 0 0 0 3 6 6 10 10
29 26 19 13 6 3 3 0 0 0 0 0 0 0 0 0 0 0 0 0 0 0 0 0 0 0 0 0 0 0 0 0 0 0 0 0 0 0 0 0 3 3 3
23 19 10 10 6 3 3 0 0 0 0 0 0 0 0 0 0 0 0 0 0 0 0 0 0 0 0 0 0 0 0 0 0 0 0 0 0 0 0 0 0 0 0
19 19 13 10 6 3 0 0 0 0 0 0 0 0 0 0 0 0 0 0 0 0 0 0 0 0 0 0 0 0 0 0 0 0 0 0 0 0 0 0 0 0 0
19 19 13 13 10 0 0 0 0 0 0 0 0 0 0 0 0 0 0 0 0 0 0 0 0 0 0 0 0 0 0 0 0 0 0 0 0 0 0 0 0 0 0

GEFSSE_con_cape1000_090.txt.gz
Probability
35 77 100 100 100 100 100 100 100 100 100 100 100 100 100 100 100 100 97 97 97 100 100 97 87 94 97 94 94 94 90 90 90 84 84 90 94 87 90 90 94 90 97
45 94 100 100 100 100 100 100 100 100 100 100 100 100 100 100 100 97 97 94 94 100 97 94 90 94 100 97 94 97 97 97 94 94 90 94 94 94 90 90 94 97 100
68 94 100 100 100 100 100 100 100 100 100 100 100 100 100 100 100 97 97 94 97 94 90 87 94 94 100 100 97 97 97 100 97 94 94 90 94 94 97 97 100 100 100
81 90 94 100 100 100 100 100 100 100 100 100 100 100 100 100 100 100 97 97 90 87 87 87 87 90 97 97 94 97 97 97 97 94 65 52 65 97 97 100 100 100 100
94 100 100 100 100 100 100 100 100 100 100 100 100 100 100 100 97 97 97 94 87 84 77 81 81 84 90 94 97 97 97 100 97 84 68 77 100 97 100 100 100 100 100
100 100 100 100 100 100 100 100 100 100 100 100 100 100 100 100 97 97 94 90 87 81 84 81 77 81 90 94 97 97 100 100 97 71 81 84 100 100 100 100 100 100 100
97 97 100 100 100 100 100 100 100 100 100 100 100 100 100 100 100 100 94 94 94 90 84 84 84 81 81 84 97 100 97 100 77 65 77 81 100 100 100 100 100 100 100
94 94 100 100 100 100 100 100 100 100 100 100 100 100 100 100 97 97 97 97 94 94 90 94 90 87 87 87 90 100 100 97 68 52 74 90 100 100 100 100 100 100 100
87 94 100 94 100 100 100 100 100 100 100 100 100 100 100 100 100 100 94 90 90 90 94 90 94 90 97 94 94 90 94 94 84 68 68 100 100 100 100 100 100 100 100
94 94 100 100 100 100 100 100 100 100 100 100 100 100 100 100 100 97 97 97 97 97 90 90 90 87 90 94 94 94 94 84 58 52 68 94 100 100 100 100 97 100 100
90 94 94 97 97 97 97 97 100 94 94 97 97 94 97 100 94 94 94 90 94 94 87 90 87 90 87 81 84 90 94 71 52 48 84 97 97 100 100 97 100 100 100
90 90 94 94 94 94 97 94 94 94 94 94 94 94 90 97 90 84 84 81 81 81 81 81 77 81 71 74 77 74 61 55 39 32 87 94 97 100 100 100 100 100 100
87 84 94 94 97 94 94 94 94 94 94 94 94 90 90 81 71 71 71 81 77 55 65 71 68 58 55 71 71 52 58 45 29 35 58 90 94 94 100 100 100 100 100
81 84 90 94 94 94 90 90 94 94 90 90 87 84 71 71 71 61 61 58 55 58 55 55 52 39 45 52 48 45 45 48 45 45 84 71 87 90 90 94 97 97 97
81 90 94 94 94 94 94 94 90 90 90 81 74 65 68 61 48 42 48 45 26 26 29 35 39 42 42 42 42 42 48 39 39 39 48 58 55 77 87 87 87 87 90
84 87 87 94 94 94 94 90 90 87 74 65 65 55 52 42 39 35 29 26 26 23 23 26 26 29 29 35 32 35 35 26 23 35 35 52 45 58 68 74 81 84 81
84 84 84 84 94 90 90 87 81 71 58 58 52 42 39 29 35 29 26 26 23 23 26 26 23 26 32 10 6 13 16 19 10 26 29 35 39 35 55 71 71 71 77
87 84 81 77 81 84 84 77 65 58 48 35 35 39 29 29 26 23 13 10 13 10 10 16 10 3 3 3 3 3 3 3 10 10 13 26 39 32 32 52 55 68 61
74 71 77 77 84 84 81 77 58 48 45 39 32 29 29 32 13 13 10 10 6 0 0 0 0 0 0 0 0 3 0 3 3 3 3 6 19 19 35 39 35 48 39
65 71 77 77 81 71 68 58 55 45 39 32 32 32 26 16 13 3 0 0 0 0 0 3 3 0 0 0 0 0 0 0 0 0 0 0 10 13 13 10 35 32 32
58 61 77 71 71 71 65 58 55 45 32 32 29 26 23 13 6 3 3 3 0 0 0 0 0 0 0 0 0 0 0 0 0 0 3 0 0 3 10 13 32 39 45
58 65 68 74 74 71 71 61 55 45 29 29 26 29 23 16 10 3 6 0 3 3 0 0 0 0 0 0 0 0 0 0 0 0 0 0 0 0 0 6 13 16 16
55 61 61 74 68 74 68 58 55 52 35 23 19 29 23 10 6 6 6 3 3 0 0 0 0 0 0 0 0 0 0 0 0 0 0 0 0 0 3 3 6 3 6
58 68 74 81 81 77 68 45 39 35 29 26 19 16 19 16 16 3 3 3 3 0 0 0 0 0 0 0 0 0 0 0 0 0 0 0 0 0 0 0 3 3 3
68 74 81 84 81 74 61 55 52 32 29 16 13 29 23 16 13 13 10 10 10 6 0 0 0 0 0 0 0 0 0 0 0 0 0 0 0 0 0 0 0 0 0
68 77 77 81 84 71 61 55 55 45 35 26 32 26 23 10 10 10 6 10 6 6 6 6 3 0 0 0 0 0 0 0 0 0 0 0 0 0 0 0 0 0 0

GEFSSE_con_cape1000_096.txt.gz
Probability
61 94 100 100 100 100 100 100 100 100 100 100 100 100 100 100 100 100 100 100 100 100 97 97 94 97 100 97 97 97 94 90 90 87 90 90 94 94 94 94 90 90 94
81 94 100 100 100 100 100 100 100 100 100 100 100 100 100 100 100 100 97 100 100 100 100 97 94 97 97 97 97 97 94 94 87 87 84 94 94 94 94 90 87 94 94
87 94 100 100 100 100 100 100 100 100 100 100 100 100 100 100 100 97 97 97 100 100 94 94 97 100 100 97 97 97 90 84 90 94 94 87 90 94 94 87 90 94 94
90 97 100 100 100 100 100 100 100 100 100 100 100 100 100 100 100 100 97 94 97 94 87 84 90 94 97 97 94 94 84 84 87 90 94 84 71 94 94 84 87 94 100
97 100 100 100 100 100 100 100 100 100 100 100 100 100 100 100 100 100 97 94 90 87 84 87 90 87 87 94 90 90 94 97 97 94 94 100 94 100 100 94 94 97 100
97 100 100 100 100 100 100 100 100 100 100 100 100 100 100 100 97 94 94 90 90 87 87 84 87 84 87 94 97 94 94 100 94 90 90 97 100 100 100 94 94 97 100
100 94 97 100 100 100 100 100 100 100 100 100 100 100 100 97 94 100 100 97 90 84 81 74 74 77 81 84 84 94 94 97 90 90 94 97 100 100 100 100 100 100 100
94 94 97 100 100 100 100 100 100 100 100 100 100 100 97 97 94 94 97 97 90 87 81 84 81 81 77 74 74 77 90 94 84 81 94 100 100 100 100 100 100 100 100
100 97 97 97 100 100 100 100 100 100 100 100 100 100 97 97 94 90 90 90 87 81 84 81 84 81 84 84 81 87 87 97 84 84 97 100 100 100 97 97 97 97 100
100 97 100 100 100 100 100 100 100 100 100 100 100 97 100 97 97 90 94 94 87 81 74 71 74 74 77 84 81 87 94 94 45 65 87 97 100 100 97 97 97 97 90
100 100 97 100 100 100 97 100 100 100 100 100 100 97 100 100 94 97 94 90 87 84 77 81 81 77 81 84 90 84 84 61 39 74 77 94 100 100 100 94 97 97 97
97 100 100 100 100 100 97 100 100 97 97 97 97 97 97 97 90 84 90 84 81 74 71 81 84 84 84 81 90 87 74 61 39 81 81 97 100 100 100 100 97 90 90
100 100 94 97 97 97 97 94 94 94 94 94 94 94 97 94 81 77 84 84 87 71 74 74 84 84 71 84 90 77 68 52 58 65 84 94 100 100 100 100 100 94 90
100 94 94 97 97 97 94 94 94 94 94 94 94 90 90 81 81 84 84 71 74 74 71 71 77 68 65 68 58 55 48 55 68 71 74 90 94 97 97 100 97 90 90
90 94 97 97 94 94 94 94 94 94 87 87 84 74 71 74 68 65 68 65 55 58 58 71 55 48 48 48 55 52 52 48 55 55 65 90 94 94 90 87 90 90 90
84 84 87 94 94 94 94 94 94 90 87 81 74 61 58 58 61 65 55 52 48 42 39 45 32 39 48 48 42 39 39 39 42 48 52 68 81 81 87 84 87 90 87
81 74 87 90 94 94 94 94 90 90 74 61 61 52 45 45 45 45 45 45 39 32 32 35 26 29 32 32 32 23 26 32 29 32 35 45 55 65 84 81 77 87 84
68 74 81 84 94 94 90 90 87 74 65 61 52 39 32 35 32 39 35 35 26 23 29 35 23 29 26 23 19 19 19 23 19 23 23 32 39 35 68 71 74 84 81
71 74 77 84 87 87 90 90 77 74 71 55 45 42 32 26 23 29 32 26 19 19 23 13 13 23 19 13 16 19 13 10 19 6 10 16 26 35 42 55 74 71 68
74 74 77 81 87 90 94 84 81 74 65 45 48 45 29 26 19 19 19 19 16 16 16 13 6 6 6 13 0 0 10 3 3 6 3 6 19 16 13 29 35 42 61
71 74 74 81 84 90 77 77 71 61 52 52 48 42 26 23 19 23 16 13 10 16 13 6 3 0 3 0 3 3 10 6 13 10 6 3 10 16 10 23 32 39 35
71 71 71 74 74 77 77 81 74 68 52 55 52 42 39 29 26 10 16 10 10 13 10 6 3 3 0 0 0 3 6 6 3 0 3 3 10 13 13 16 13 26 26
61 65 61 71 71 71 71 65 58 68 55 58 55 48 39 29 26 19 16 13 13 13 13 13 10 6 0 0 0 0 3 3 3 0 0 3 6 10 6 10 16 29 13
45 52 65 74 74 81 74 71 55 48 55 52 58 55 48 32 23 23 16 10 10 10 16 10 6 3 3 0 0 0 0 0 3 0 0 0 3 6 6 0 6 13 10
48 58 65 68 77 77 71 77 74 55 61 58 65 65 48 42 26 19 16 13 13 13 13 13 16 3 6 3 3 0 0 0 0 0 0 0 0 0 3 6 6 3 10
55 61 65 74 77 81 81 81 77 65 65 71 68 65 58 48 32 23 13 13 10 10 10 10 13 6 10 6 3 0 0 0 0 0 0 0 0 0 0 0 3 0 0

GEFSSE_con_cape1000_102.txt.gz
Probability
81 100 100 100 100 100 100 100 100 100 100 100 100 100 100 100 100 100 100 100 100 100 97 97 100 100 100 100 100 100 100 97 97 97 97 97 97 97 100 100 97 97 100
84 100 100 100 100 100 100 100 100 100 100 100 100 100 100 100 100 100 100 100 100 100 100 100 100 100 97 97 97 100 100 97 100 100 94 90 94 97 97 97 97 100 100
87 100 100 100 100 100 100 100 100 100 100 100 100 100 100 100 100 100 100 100 97 100 97 100 100 97 97 97 97 97 100 97 100 100 94 87 94 97 97 97 100 100 100
94 100 100 100 100 100 100 100 100 100 100 100 100 100 100 100 100 97 97 97 97 97 97 97 90 90 97 97 97 100 100 97 94 97 58 84 90 94 94 97 100 100 100
94 100 100 100 100 100 100 100 100 100 100 100 100 100 100 100 100 97 97 90 90 90 87 84 81 84 84 90 97 100 97 97 100 87 61 61 87 90 90 97 100 100 100
100 100 100 100 100 100 100 100 100 100 100 100 100 100 100 100 97 97 97 90 94 87 84 81 81 77 87 90 100 100 100 100 90 61 55 71 84 100 94 97 100 100 100
100 100 100 100 100 100 100 100 100 100 100 100 100 100 100 100 100 97 97 100 97 87 77 77 77 74 74 81 87 90 100 100 65 39 58 77 94 100 100 100 100 100 100
100 100 100 100 100 100 100 100 100 100 100 100 100 100 100 97 97 100 100 97 94 87 84 84 81 77 81 81 94 97 97 87 74 52 52 74 90 100 100 100 100 100 100
100 100 100 100 100 100 100 100 100 100 100 100 100 100 100 97 97 97 100 97 90 90 84 81 68 77 81 84 94 97 97 90 26 48 55 77 90 97 100 100 100 100 100
97 100 100 100 100 100 100 100 100 100 100 100 100 100 100 100 97 97 97 97 87 84 77 71 68 71 81 87 94 97 94 58 32 45 52 71 87 94 97 100 100 100 100
94 97 100 100 100 100 100 100 100 100 100 100 97 100 100 77 81 90 90 97 84 68 65 71 74 71 87 84 90 97 74 32 23 42 45 74 84 94 97 100 100 100 100
90 90 94 100 100 100 100 97 97 97 97 94 90 94 68 48 52 77 84 84 77 77 71 84 84 84 65 39 42 61 19 26 16 32 45 77 81 94 97 97 100 100 100
90 90 87 87 97 90 94 97 94 90 84 84 77 77 48 26 42 39 45 55 48 58 42 45 45 26 29 26 19 16 23 19 13 26 42 81 90 90 97 97 100 100 100
71 74 77 87 81 84 87 90 90 84 77 81 71 61 39 19 16 19 16 23 16 19 13 10 13 13 16 19 16 10 10 16 13 10 35 65 87 97 97 97 100 100 100
71 71 81 71 81 81 81 87 84 74 71 65 42 42 19 19 10 13 10 6 6 3 3 0 6 6 6 10 6 6 3 10 3 3 16 74 97 100 100 97 100 100 100
68 61 68 71 65 74 74 77 68 65 52 42 35 26 13 6 6 3 3 3 3 3 3 3 0 0 0 0 3 6 0 0 3 3 13 39 90 97 100 100 100 100 100
52 58 58 58 65 65 65 61 48 52 39 32 26 19 10 3 3 3 0 0 0 0 0 0 0 0 0 0 0 0 3 0 0 3 3 10 39 81 90 90 90 97 100
48 48 55 55 55 58 52 42 35 42 35 29 23 10 6 6 3 3 0 0 0 0 0 0 0 0 0 0 0 0 0 0 0 0 3 3 13 23 61 81 87 97 90
35 39 52 48 52 45 39 32 35 29 29 26 16 10 10 10 3 0 0 0 0 0 0 0 0 0 0 0 0 0 0 0 0 0 0 3 3 6 10 35 71 84 77
35 39 39 52 48 42 32 26 19 23 23 13 13 13 13 10 0 0 0 0 0 0 0 0 0 0 0 0 0 0 0 0 0 0 0 0 0 3 3 6 10 35 55
32 32 35 39 42 35 29 26 13 19 16 13 13 16 10 3 3 0 0 0 0 0 0 0 0 0 0 0 0 0 0 0 0 0 0 0 0 0 0 0 0 3 3
29 32 32 35 32 32 29 23 13 10 16 13 16 10 3 3 3 3 0 0 0 0 0 0 0 0 0 0 0 0 0 0 0 0 0 0 0 0 0 3 0 0 0
29 32 32 35 32 29 23 19 19 13 10 10 3 3 3 3 3 3 0 0 0 0 0 0 0 0 0 0 0 0 0 0 0 0 0 0 0 0 0 0 0 0 0
29 32 26 32 32 23 23 23 19 13 13 13 3 3 3 3 3 3 0 0 0 0 0 0 0 0 0 0 0 0 0 0 0 0 0 0 0 0 0 0 0 0 0
32 32 32 32 29 26 26 23 13 6 3 3 3 6 3 3 3 6 0 0 0 0 0 0 0 0 0 0 0 0 0 0 0 0 0 0 0 0 0 0 0 0 0
29 35 35 35 29 23 26 23 13 6 3 3 3 3 3 3 3 3 0 0 0 0 0 0 0 0 0 0 0 0 0 0 0 0 0 0 0 0 0 0 0 0 0

GEFSSE_con_cape1000_108.txt.gz
Probability
58 97 100 100 100 100 100 100 100 100 100 100 100 100 100 100 100 100 100 100 100 100 100 97 100 97 100 94 97 97 97 94 90 87 87 90 94 97 97 100 94 81 97
65 100 100 100 100 100 100 100 100 100 100 100 100 100 100 100 100 100 100 100 97 94 94 97 94 97 90 90 87 97 97 94 94 90 90 94 97 97 97 94 97 90 97
90 100 100 100 100 100 100 100 100 100 100 100 100 100 100 100 100 100 100 97 94 90 94 97 97 94 97 97 97 97 94 90 94 90 87 90 94 90 94 97 100 97 94
90 100 100 100 100 100 100 100 100 100 100 100 100 100 100 100 100 100 100 90 87 94 84 90 94 94 97 97 100 97 97 97 84 90 87 90 90 94 94 97 100 97 97
94 97 100 100 100 100 100 100 100 100 100 100 100 100 100 100 100 100 97 94 94 94 87 84 84 87 94 94 94 97 100 97 90 77 87 87 87 94 90 97 100 97 97
90 97 100 100 100 100 100 100 100 100 100 100 100 100 100 100 97 94 94 94 90 90 84 77 81 81 84 84 94 100 100 90 87 84 84 84 87 97 94 97 97 100 100
94 100 100 100 100 100 100 100 100 100 100 100 97 97 97 97 94 90 90 90 90 87 81 77 87 90 84 84 90 94 94 97 61 81 84 90 90 100 97 97 97 100 100
97 100 100 100 100 100 100 100 100 100 100 100 97 97 97 97 100 97 97 94 90 87 81 84 81 87 90 90 90 94 90 87 77 68 87 87 100 100 100 100 100 100 100
97 100 100 100 100 100 100 100 100 100 100 100 100 97 97 97 97 94 94 87 87 84 81 77 74 77 84 90 90 94 94 90 52 71 71 84 100 100 97 97 100 97 97
97 97 100 100 100 100 100 100 100 100 100 100 100 100 100 97 97 97 100 97 81 77 71 68 68 71 84 81 90 84 94 81 39 55 74 90 97 100 97 97 100 97 97
97 97 94 100 100 100 100 100 100 100 100 100 100 100 100 87 94 97 100 87 87 84 71 71 55 61 61 65 77 94 81 39 45 58 61 87 97 100 100 97 97 100 100
94 90 90 90 97 100 100 100 97 97 97 94 90 90 77 61 58 81 77 77 71 55 58 55 58 45 32 23 55 65 39 39 39 55 58 84 90 94 97 100 100 100 100
94 87 87 94 94 94 94 97 97 90 87 81 84 77 52 32 32 42 32 45 42 45 32 32 26 19 16 19 29 42 35 32 39 52 58 77 90 90 97 100 100 100 97
81 84 87 94 94 84 87 94 84 84 77 81 68 52 26 16 13 16 13 19 23 19 19 13 10 13 16 19 26 26 26 29 35 45 48 84 87 94 97 97 97 100 100
71 81 81 84 77 77 74 77 81 74 74 61 45 42 26 19 10 10 6 10 13 6 3 3 3 10 10 10 13 16 23 16 13 29 32 68 87 97 100 94 90 94 100
52 55 71 74 71 74 77 74 71 65 61 52 45 35 23 16 13 6 10 6 3 3 3 0 0 0 0 0 3 3 13 13 13 16 16 35 65 97 97 90 90 90 100
45 48 52 61 65 71 71 68 68 58 58 42 32 29 23 16 13 6 3 0 0 3 0 0 0 0 0 0 0 0 0 3 6 13 16 19 42 58 77 90 81 84 87
32 42 39 52 55 58 68 52 45 45 35 32 26 19 19 13 10 6 3 3 3 0 0 0 0 0 0 0 0 0 0 0 0 3 16 13 23 26 39 58 61 68 74
35 32 32 39 42 48 45 39 35 29 29 26 13 13 6 6 6 0 3 0 0 0 0 0 0 0 0 0 0 0 0 0 0 0 3 3 3 10 19 19 45 42 48
23 23 19 19 32 32 19 16 19 26 19 13 13 13 3 6 0 0 0 0 0 0 0 0 0 0 0 0 0 0 0 0 0 0 0 0 3 10 10 10 19 23 29
23 16 19 19 23 19 16 16 16 16 13 13 6 6 3 0 0 0 0 0 0 0 0 0 0 0 0 0 0 0 0 0 0 0 0 0 0 0 3 6 6 3 10
16 16 16 16 19 23 19 13 3 6 10 10 6 3 3 0 0 0 0 0 0 0 0 0 0 0 0 0 0 0 0 0 0 0 0 0 0 0 0 0 3 3 3
19 19 19 16 19 16 13 3 3 3 3 3 6 3 3 3 0 0 0 0 0 0 0 0 0 0 0 0 0 0 0 0 0 0 0 0 0 0 0 0 0 0 3
19 19 19 13 19 16 13 10 3 3 3 3 3 3 3 3 0 0 0 0 0 0 0 0 0 0 0 0 0 0 0 0 0 0 0 0 0 0 0 0 0 0 0
10 16 16 16 13 13 10 10 6 3 3 3 3 3 3 3 0 3 0 0 0 0 0 0 0 0 0 0 0 0 0 0 0 0 0 0 0 0 0 0 0 0 0
10 10 19 19 16 10 13 10 10 3 3 3 3 3 3 3 0 3 3 0 0 0 0 0 0 0 0 0 0 0 0 0 0 0 0 0 0 0 0 0 0 0 0

GEFSSE_con_cape1000_114.txt.gz
Probability
23 77 100 100 100 100 100 100 100 100 100 100 100 100 100 100 100 100 97 94 94 94 90 90 94 94 94 97 97 94 90 90 87 90 94 90 94 90 90 97 94 74 87
35 87 100 100 100 100 100 100 100 100 100 100 100 100 100 100 100 100 100 97 97 87 94 94 94 90 97 94 90 90 94 94 90 94 90 94 94 90 94 94 100 94 94
58 97 100 100 100 100 100 100 100 100 100 100 100 100 100 100 100 100 100 97 97 97 97 97 94 97 94 90 94 94 94 90 90 90 87 81 77 90 94 90 100 100 94
58 97 100 100 100 100 100 100 100 100 100 100 100 100 100 100 100 100 94 90 87 87 90 94 90 97 97 97 90 94 90 87 87 90 74 65 68 87 97 97 100 97 97
81 100 100 100 100 100 100 100 100 100 100 100 100 100 100 100 100 97 90 90 90 90 90 90 90 90 90 94 94 97 97 87 81 74 74 81 90 97 97 97 100 100 100
90 97 100 100 100 100 100 100 100 100 100 100 100 100 100 100 100 97 97 97 97 97 94 87 77 77 81 87 94 97 97 87 87 48 81 94 90 97 97 97 97 100 100
84 100 100 100 100 100 100 100 100 100 100 100 100 100 100 100 97 100 97 97 97 94 94 90 87 87 84 90 90 100 97 84 48 35 68 81 94 97 97 94 100 100 100
84 94 100 100 100 100 100 100 100 100 100 100 100 100 100 100 100 97 94 90 90 84 84 81 77 84 87 87 90 94 87 77 42 32 55 87 97 97 97 100 94 97 100
81 90 100 100 100 100 100 100 100 100 100 100 100 100 100 100 100 97 94 90 87 87 81 68 71 81 84 87 87 94 90 71 42 45 35 84 97 100 100 94 90 94 100
87 94 100 100 100 100 100 100 100 100 100 100 100 100 100 100 100 97 97 90 74 71 68 74 65 65 74 81 87 87 94 77 32 23 52 90 100 100 97 87 87 84 87
90 94 97 97 100 100 100 100 100 100 100 100 100 100 100 87 87 87 87 90 81 74 65 58 55 55 68 68 87 84 90 65 35 35 84 100 100 97 97 90 90 90 90
97 87 90 94 97 97 100 100 100 100 100 100 100 97 94 90 90 77 87 84 74 71 58 52 48 45 45 52 68 71 58 52 42 48 94 97 97 97 87 87 94 94 97
94 87 84 90 100 100 100 100 100 100 100 100 100 100 100 87 77 74 74 71 81 65 55 61 32 32 26 55 58 42 42 35 42 48 87 94 87 84 81 90 87 87 87
97 90 84 97 100 100 100 100 100 100 100 100 100 100 100 87 74 68 71 68 61 58 55 39 39 39 39 48 55 52 45 39 35 71 100 81 81 81 74 84 90 81 87
100 97 94 97 97 97 97 100 97 100 97 100 97 97 94 74 74 65 74 68 45 42 45 42 42 45 48 45 39 52 52 52 45 42 87 84 77 77 77 74 71 74 77
90 87 84 90 97 94 97 100 100 90 97 90 90 90 81 68 71 65 65 55 45 39 35 35 39 45 32 35 32 45 58 42 55 52 55 71 71 81 81 74 71 71 74
84 84 84 90 87 90 94 100 97 90 94 90 94 94 81 68 61 55 55 52 48 39 42 35 35 29 26 16 23 23 26 42 39 32 35 58 58 68 84 65 65 65 65
77 81 81 68 84 84 87 84 87 81 90 87 90 84 74 65 58 52 55 42 39 35 23 23 16 13 13 10 10 10 23 35 29 23 32 48 52 32 48 45 48 48 42
71 74 74 65 71 81 77 84 87 87 90 90 81 74 68 55 48 42 42 32 29 23 19 6 6 10 13 10 6 19 13 19 16 6 10 10 16 26 35 42 42 48 39
58 65 68 68 68 74 77 81 84 84 84 81 77 71 52 42 35 39 35 35 19 19 23 13 16 16 16 10 0 6 6 6 3 10 3 0 10 3 10 13 26 26 29
55 58 65 61 65 68 74 81 77 81 77 68 68 65 52 45 39 35 26 39 26 19 16 10 10 6 6 6 3 10 6 0 3 6 6 6 6 10 10 10 10 16 26
45 52 52 58 65 65 71 71 71 68 61 65 55 61 52 45 42 35 35 26 29 29 16 13 13 10 6 3 0 3 3 3 3 0 6 10 6 6 6 3 3 16 10
48 48 35 58 58 55 61 55 55 58 52 45 58 55 39 35 39 32 29 26 26 19 16 13 10 3 6 0 0 0 0 3 6 0 0 0 3 6 6 10 3 6 10
45 42 42 58 55 55 55 55 55 55 48 52 55 52 35 35 35 29 26 26 29 13 13 13 3 3 3 0 0 0 0 3 0 0 0 0 0 3 3 0 6 6 10
42 35 42 48 52 68 58 55 58 55 58 55 48 48 39 32 35 32 26 29 29 19 13 13 13 0 0 0 0 0 0 0 0 0 0 0 0 0 0 0 0 0 3
39 39 39 45 61 65 58 58 65 58 58 48 52 48 42 35 32 32 29 29 23 23 23 23 19 10 0 0 0 0 0 0 3 3 3 0 0 0 0 0 0 3 3

GEFSSE_con_cape1000_120.txt.gz
Probability
71 97 100 100 100 100 100 100 100 100 100 100 100 100 100 100 100 100 97 97 94 97 97 97 94 97 97 97 97 97 94 97 100 97 97 94 94 97 100 94 94 84 97
81 97 100 100 100 100 100 100 100 100 100 100 100 100 100 100 97 97 97 97 97 100 97 97 97 100 97 97 94 90 90 94 94 90 94 90 90 90 94 94 94 90 94
84 94 100 100 100 100 100 100 100 100 100 100 100 100 100 100 100 100 97 97 100 97 97 97 97 97 97 90 90 90 81 81 84 90 90 77 81 90 94 100 94 94 94
84 97 100 100 100 100 100 100 100 100 100 100 100 100 100 100 100 100 100 100 100 97 97 97 100 100 94 94 90 84 74 71 74 74 77 61 61 90 97 97 97 87 87
90 97 100 100 100 100 100 100 100 100 100 100 100 100 100 100 100 97 97 97 97 90 97 97 94 90 90 90 90 84 84 74 77 87 77 87 87 90 97 94 97 94 87
100 100 100 100 100 100 100 100 100 100 100 100 100 100 100 100 100 97 100 97 97 94 94 94 90 87 87 87 81 77 71 74 87 87 90 90 87 94 94 94 97 97 87
97 97 100 100 100 100 100 100 100 100 100 100 100 100 100 100 100 100 97 97 94 97 97 81 84 84 84 81 74 68 68 90 94 84 87 90 94 100 97 97 94 94 97
97 97 100 100 100 100 100 100 100 100 100 100 100 100 100 100 100 97 97 97 94 84 84 84 84 84 77 74 65 65 77 84 74 77 84 90 97 100 97 94 94 97 94
100 100 100 100 100 100 100 100 100 100 100 100 100 100 100 100 97 94 94 90 87 81 81 77 74 71 74 68 61 65 81 94 71 68 84 87 100 100 94 90 94 94 90
97 100 100 100 100 100 100 100 100 100 100 100 100 100 100 97 97 97 90 87 84 77 68 68 65 61 65 61 68 77 87 77 58 74 87 94 100 100 94 77 90 90 87
94 97 94 100 100 100 100 100 100 100 100 100 100 100 100 100 97 97 94 84 71 74 58 58 45 52 65 74 77 77 77 61 52 61 84 100 100 100 90 84 87 90 87
90 90 97 97 100 97 97 100 100 100 100 100 100 100 100 100 100 90 90 90 71 61 45 42 48 58 58 55 65 87 71 65 48 74 87 100 100 97 87 84 81 81 84
87 87 97 94 97 97 97 100 100 100 100 100 100 100 100 100 100 94 81 81 81 74 68 65 65 39 45 61 68 74 61 45 48 65 100 100 97 94 81 81 84 84 84
87 87 90 90 94 90 97 97 100 100 100 100 100 100 100 100 100 97 100 84 81 81 74 68 81 61 55 48 61 61 39 58 61 68 81 97 100 94 87 81 77 81 81
90 87 87 87 90 87 94 90 94 94 97 100 100 100 97 94 97 84 87 84 77 65 65 68 61 61 58 61 65 61 58 68 81 58 81 94 97 97 84 81 77 71 74
84 87 87 84 87 90 87 87 87 90 94 97 100 100 100 94 84 81 77 81 77 71 61 68 61 61 68 77 68 71 68 65 81 81 74 100 97 94 90 81 77 65 65
81 81 74 71 81 81 84 84 87 90 90 94 97 97 90 84 81 81 84 77 71 58 52 55 48 52 61 61 68 68 65 61 65 71 74 71 74 90 90 87 84 81 61
77 71 71 65 74 77 84 84 87 90 90 97 94 90 81 77 71 77 77 71 58 55 52 58 58 55 58 61 65 58 58 61 48 58 65 77 58 55 81 87 81 71 68
68 68 71 68 71 74 81 84 87 84 87 87 84 87 77 71 71 71 77 68 65 52 45 35 61 58 52 52 52 55 52 58 48 39 58 55 61 55 32 71 74 61 58
65 68 68 61 65 68 74 77 77 74 77 87 81 84 77 65 61 65 68 52 45 45 48 55 45 48 48 45 6 10 29 39 39 39 32 35 45 35 29 23 32 39 55
65 68 71 61 61 71 71 68 68 71 74 74 77 77 71 65 61 61 48 48 45 48 45 29 29 19 19 23 19 23 23 23 26 35 26 23 10 19 29 35 23 23 19
61 71 74 68 61 68 71 68 68 71 71 71 77 84 71 68 58 39 52 48 42 55 32 26 32 39 19 23 13 10 6 6 19 0 23 13 6 16 23 16 23 23 13
68 68 61 68 71 68 68 61 61 71 68 61 68 74 68 61 55 52 48 42 42 35 29 29 26 16 16 16 16 19 13 3 3 13 13 6 13 10 6 16 16 23 13
65 65 68 68 61 68 58 61 61 58 55 55 55 68 65 58 52 42 42 45 45 35 35 23 23 26 29 32 23 16 16 29 10 13 10 13 16 3 10 3 3 16 19
65 68 68 65 65 58 58 61 65 61 55 48 61 58 61 65 45 39 39 42 39 35 42 35 42 29 35 35 32 13 13 19 10 10 0 0 10 3 3 6 6 16 16
61 61 61 61 58 55 61 65 65 55 65 55 58 58 58 55 45 39 39 42 42 39 35 29 29 26 29 39 35 39 13 10 10 10 6 3 3 3 3 13 10 19 16

GEFSSE_con_cape1000_126.txt.gz
Probability
90 97 100 100 100 100 100 100 100 100 100 100 100 100 100 100 100 100 100 100 100 100 100 100 100 100 100 100 100 100 100 94 97 100 97 97 97 97 97 94 81 74 94
94 97 100 100 100 100 100 100 100 100 100 100 100 100 100 100 100 100 100 100 100 100 100 100 100 97 100 100 100 97 97 100 97 97 94 97 97 97 94 94 90 87 97
97 97 100 100 100 100 100 100 100 100 100 100 100 100 100 100 100 100 100 100 100 100 100 100 100 97 97 97 94 94 90 94 94 90 87 74 87 97 97 94 94 97 97
97 100 100 100 100 100 100 100 100 100 100 100 100 100 100 100 100 100 100 100 100 100 100 100 100 97 94 97 94 90 90 87 84 77 35 65 77 97 94 97 97 90 87
97 100 100 100 100 100 100 100 100 100 100 100 100 100 100 100 100 100 100 100 100 100 100 97 94 94 90 94 90 90 90 90 84 48 32 42 77 97 94 94 94 84 87
100 100 100 100 100 100 100 100 100 100 100 100 100 100 100 100 100 100 100 100 100 97 94 90 87 84 84 87 87 90 87 87 68 23 32 68 81 100 97 97 97 87 87
97 100 100 100 100 100 100 100 100 100 100 100 100 100 100 100 100 100 100 100 100 94 94 90 87 87 87 87 84 90 90 90 16 23 45 61 84 100 97 97 94 87 94
97 100 100 100 100 100 100 100 100 100 100 100 100 100 97 100 100 97 97 97 97 90 87 77 77 81 84 87 87 90 87 81 61 35 55 65 100 100 100 97 94 94 94
100 100 100 100 100 100 100 100 100 100 100 100 100 100 100 100 97 97 97 94 90 87 84 81 77 68 68 74 81 87 94 84 13 32 52 81 100 100 100 100 94 97 100
100 100 100 100 100 100 100 100 100 100 100 100 100 100 100 97 97 94 97 97 87 87 81 74 61 48 61 81 77 84 90 74 29 32 48 87 100 100 100 97 97 100 100
100 100 100 100 100 100 100 100 100 100 100 100 100 100 100 94 90 97 94 90 84 84 61 61 48 55 65 65 74 81 68 10 26 29 55 94 100 100 100 100 100 100 100
97 100 100 100 100 100 100 100 100 100 100 97 97 100 87 68 68 77 84 87 81 65 58 58 58 55 45 26 35 48 3 16 19 35 74 94 97 97 97 97 100 97 100
90 87 94 94 94 97 94 97 94 94 97 94 94 90 71 52 55 52 55 68 45 55 35 39 45 26 23 3 0 0 6 6 13 29 81 97 97 97 94 97 100 94 94
77 74 84 87 87 81 87 84 84 81 84 84 81 84 58 29 32 42 42 32 23 16 13 16 19 16 6 3 6 3 6 3 6 26 71 97 100 97 94 97 94 94 90
65 65 71 68 71 74 68 77 74 74 77 74 68 61 42 39 26 26 29 16 13 13 16 6 3 0 6 6 6 6 10 6 10 23 55 94 97 100 97 90 90 90 90
55 55 52 58 58 61 55 68 61 58 55 55 48 39 26 19 19 10 13 6 13 10 6 6 3 3 3 0 3 3 0 6 10 19 35 81 97 100 97 97 81 84 87
52 48 42 45 42 45 39 32 39 39 39 29 35 32 23 16 13 10 10 13 6 6 3 3 3 3 0 0 3 3 3 10 6 16 26 48 61 97 100 94 87 87 81
42 35 35 48 42 35 32 29 29 32 35 32 26 29 32 23 13 10 3 6 0 3 3 3 6 3 3 0 0 0 0 0 3 6 13 23 35 55 84 94 94 90 77
35 32 26 39 39 26 23 23 23 23 29 29 13 26 26 39 26 13 6 3 3 3 0 0 0 0 0 0 0 0 0 0 0 6 10 16 10 10 23 61 94 81 74
32 26 29 32 29 23 16 16 16 16 10 10 13 19 19 23 19 3 6 0 6 0 0 0 0 0 0 0 0 0 0 0 0 0 0 0 0 0 3 19 35 55 71
35 32 32 32 29 19 13 13 16 13 13 10 10 16 13 29 16 3 6 3 0 0 0 0 0 0 0 0 0 0 0 0 0 0 0 0 0 0 0 0 3 13 13
39 32 32 29 29 19 10 10 16 10 10 6 13 19 16 23 13 13 3 3 0 0 0 0 0 0 0 0 0 0 0 0 0 0 0 0 0 0 0 0 3 0 0
45 32 32 32 29 19 10 10 19 6 6 6 10 6 16 19 13 10 0 0 0 0 0 0 0 0 0 0 0 0 0 0 0 0 0 0 0 0 0 0 0 0 0
45 35 26 29 32 26 16 16 16 13 6 6 6 10 10 13 10 3 0 0 0 0 0 0 0 0 0 0 0 0 0 0 0 0 0 0 0 0 0 0 0 0 0
39 39 32 29 23 19 16 13 10 6 6 3 6 10 10 6 6 3 0 0 0 0 0 0 0 0 0 0 0 0 0 0 0 0 0 0 0 0 0 0 0 0 0
39 26 32 32 29 29 19 16 13 6 6 6 6 10 10 6 6 6 3 3 0 0 0 0 0 0 0 0 0 0 0 0 0 0 0 0 0 0 0 0 0 0 0

GEFSSE_con_cape1000_132.txt.gz
Probability
65 100 100 100 100 100 100 100 100 100 100 100 100 100 100 100 100 100 100 100 100 100 100 100 97 97 94 87 94 94 94 97 97 97 94 94 81 81 87 94 90 87 90
81 100 100 100 100 100 100 100 100 100 100 100 100 100 100 100 100 100 100 100 100 100 97 100 100 97 97 90 90 90 94 97 97 97 94 87 90 90 94 87 87 97 100
90 100 100 100 100 100 100 100 100 100 100 100 100 100 100 100 100 100 100 100 100 100 94 97 100 100 94 94 94 94 97 97 97 94 90 87 90 94 97 94 94 100 100
97 100 100 100 100 100 100 100 100 100 100 100 100 100 100 100 100 100 100 100 100 97 94 97 94 94 97 87 97 97 97 97 94 94 65 68 81 94 94 94 94 94 97
100 100 100 100 100 100 100 100 100 100 100 100 100 100 100 100 100 100 100 100 100 100 97 94 87 87 87 84 87 90 94 90 90 61 55 68 94 94 94 94 94 94 94
100 100 100 100 100 100 100 100 100 100 100 100 100 100 100 100 100 100 100 100 100 97 97 97 90 87 90 90 94 94 90 94 61 39 55 74 94 94 94 90 94 94 90
100 100 100 100 100 100 100 100 100 100 100 100 100 100 100 100 100 100 100 100 100 94 94 87 84 84 81 84 90 90 90 84 13 42 65 81 90 97 94 90 94 94 94
100 100 100 100 100 100 100 100 100 100 100 100 100 100 100 100 100 100 100 100 97 87 90 87 84 84 84 81 81 87 87 81 58 52 68 87 100 97 97 97 94 94 94
100 100 100 100 100 100 100 100 100 100 100 100 100 100 100 100 100 97 97 94 90 84 84 84 84 81 84 87 84 84 87 87 23 52 65 87 100 100 97 94 97 97 94
100 100 100 100 100 100 100 100 100 100 100 100 100 97 97 97 97 94 97 90 84 84 81 74 74 71 77 74 84 87 90 74 26 42 81 90 100 100 87 87 87 97 94
100 100 100 100 100 100 100 100 100 100 100 100 100 97 97 87 94 94 94 90 81 77 71 68 71 71 77 68 68 90 77 23 32 55 71 97 100 100 87 81 90 90 97
100 100 100 94 100 100 100 100 100 100 97 97 97 97 71 58 74 84 90 87 77 71 65 61 61 65 42 26 61 74 19 35 45 52 71 94 100 97 87 87 94 90 90
97 94 94 97 97 97 94 94 90 87 87 87 84 68 42 29 45 42 55 58 45 48 29 42 32 23 13 13 10 0 26 32 42 55 77 94 97 94 90 87 90 87 81
87 90 87 97 97 87 87 90 84 87 77 74 65 45 29 23 23 23 26 26 19 10 13 16 10 10 10 3 3 3 13 26 32 55 68 90 94 90 87 81 84 81 77
74 81 81 87 90 81 84 84 77 77 71 61 45 35 23 23 19 16 16 16 16 6 6 3 0 3 3 3 3 6 13 19 29 45 65 81 94 90 87 81 74 74 84
65 71 74 81 74 74 71 71 71 61 42 39 35 35 23 10 6 13 13 6 3 0 3 3 0 0 3 3 3 10 13 16 26 29 52 68 87 94 87 84 68 74 77
42 58 74 81 65 55 52 45 45 39 32 26 29 26 19 6 6 6 6 0 0 0 0 3 0 3 0 0 3 3 10 16 16 26 45 52 74 81 87 94 84 74 71
35 39 45 55 42 29 26 29 29 29 19 19 19 16 16 6 3 3 0 0 0 0 0 3 0 0 0 0 0 0 3 10 16 23 39 52 55 58 74 90 84 77 68
29 39 35 29 23 19 23 23 16 10 13 10 6 10 6 6 3 3 0 0 0 0 0 3 0 0 0 0 0 0 0 3 10 19 29 29 42 48 55 58 71 74 58
23 19 16 19 19 13 16 13 10 3 6 10 10 6 6 0 3 0 0 0 0 0 0 0 0 0 0 0 0 0 0 0 0 3 6 16 16 19 23 32 58 58 58
19 19 16 19 10 10 13 10 10 6 3 3 6 6 6 0 0 0 0 0 0 0 0 0 0 0 0 0 0 0 0 0 0 0 0 0 3 3 10 13 10 16 23
23 16 13 10 10 13 10 6 6 6 3 3 6 10 6 0 0 0 0 0 0 0 0 0 0 0 0 0 0 0 0 0 0 0 0 0 0 0 3 3 6 6 6
19 16 16 10 10 10 3 3 3 3 0 0 0 0 3 0 0 0 0 0 0 0 0 0 0 0 0 0 0 0 0 0 0 0 0 0 0 0 0 3 3 3 3
19 16 6 10 10 10 0 3 3 3 6 6 3 3 3 6 3 3 0 0 0 0 0 0 0 0 0 0 0 0 0 0 0 0 0 0 0 0 0 0 0 3 3
16 16 13 10 10 6 0 3 3 3 3 3 0 3 3 3 3 3 3 0 0 0 0 0 0 0 0 0 0 0 0 0 0 0 0 0 0 0 0 0 0 0 0
16 13 19 16 10 3 6 3 3 3 0 0 0 3 3 0 0 3 3 0 0 0 0 0 0 0 0 0 0 0 0 0 0 0 0 0 0 0 0 0 0 0 0

GEFSSE_con_cape1000_138.txt.gz
Probability
26 58 100 100 100 100 100 100 100 100 100 100 100 100 100 100 100 100 100 100 100 100 94 90 90 90 90 87 94 87 97 97 94 90 87 87 84 84 90 94 94 81 90
48 71 100 100 100 100 100 100 100 100 100 100 100 100 100 100 100 100 100 100 100 100 97 100 97 90 90 94 94 94 94 87 90 87 87 87 90 84 97 94 97 97 97
68 84 100 100 100 100 100 100 100 100 100 100 100 100 100 100 100 100 100 97 100 97 94 100 97 97 97 100 97 97 97 90 90 90 81 74 74 87 90 94 97 97 94
77 90 100 100 100 100 100 100 100 100 100 100 100 100 100 100 100 100 100 100 100 97 97 94 94 97 94 94 97 97 97 94 77 81 71 68 68 87 94 94 94 97 94
90 97 100 100 100 100 100 100 100 100 100 100 100 100 100 100 100 100 100 100 97 97 100 90 87 90 94 94 94 94 97 84 74 61 74 90 97 94 94 94 94 94 90
97 97 97 100 100 100 100 100 100 100 100 100 100 100 100 100 100 100 100 100 97 97 97 90 90 90 90 90 90 97 90 65 61 29 58 68 87 94 94 94 94 94 94
90 100 100 100 100 100 100 100 100 100 100 100 100 100 100 100 100 100 100 94 94 97 97 87 87 90 90 94 94 90 71 42 16 23 45 71 90 94 94 94 94 94 90
87 97 100 100 100 100 100 100 100 100 100 100 100 100 100 100 100 100 100 97 97 97 94 87 84 84 87 90 94 90 71 52 16 23 45 74 94 97 94 90 94 94 90
84 94 100 100 100 100 100 100 100 100 100 100 100 100 100 100 100 100 100 97 97 94 90 90 84 81 84 81 84 90 74 58 13 23 29 81 90 90 87 87 84 87 90
87 94 100 100 100 100 100 100 100 100 100 100 100 100 100 100 100 94 97 94 87 84 84 74 74 71 71 77 87 84 81 71 10 19 39 74 90 84 84 81 81 81 87
90 94 97 100 100 100 100 100 100 100 100 100 97 97 100 97 90 90 94 87 84 74 71 68 65 58 68 74 84 90 81 32 10 26 61 87 90 68 81 77 81 81 87
94 94 97 100 100 100 100 100 100 100 100 100 100 97 97 97 94 84 90 90 81 77 77 77 65 58 48 58 74 74 58 23 13 29 77 94 90 74 71 84 84 84 90
97 97 97 100 100 100 97 97 97 97 97 100 100 97 100 90 87 74 87 87 87 71 58 68 55 35 26 58 58 52 35 35 26 23 77 87 87 77 81 81 81 77 87
94 94 97 94 97 100 97 97 97 97 94 97 97 90 97 81 81 77 81 77 74 74 71 48 58 52 45 52 45 45 39 45 42 45 94 87 94 81 81 77 81 84 84
97 94 87 90 94 97 97 97 94 94 94 94 97 94 87 84 77 74 81 77 52 52 52 48 48 55 52 52 35 39 45 42 42 32 87 81 87 87 74 65 71 74 77
94 84 87 87 94 97 100 97 94 94 94 84 87 87 81 71 84 81 84 74 48 45 39 52 48 61 55 55 42 45 42 39 39 39 42 71 84 90 84 74 65 68 65
84 87 87 81 90 97 94 100 97 90 87 81 81 87 84 71 87 74 71 61 45 45 45 42 48 45 52 39 48 42 39 29 29 39 35 55 68 77 77 81 77 74 58
77 81 77 71 81 87 94 87 84 71 68 77 77 87 84 87 84 90 65 55 58 52 45 52 35 39 29 29 42 26 26 55 42 42 26 39 45 35 58 68 68 65 65
81 74 77 81 77 71 77 77 74 71 68 74 71 81 81 81 81 71 61 68 65 55 45 32 39 23 32 19 19 26 23 23 39 26 26 23 23 23 26 68 65 68 55
71 74 74 74 74 65 65 77 61 61 74 65 61 71 71 81 81 68 65 65 65 48 48 45 48 42 32 32 0 6 10 10 19 29 6 13 16 13 16 23 55 52 55
71 74 71 71 65 61 61 52 45 58 65 58 65 61 68 65 68 65 55 71 58 48 48 39 29 35 35 29 13 19 6 3 13 19 13 6 3 10 23 19 19 29 52
68 65 74 65 58 61 58 65 61 58 48 58 55 61 55 55 65 52 65 58 55 55 52 48 39 35 19 26 16 16 16 16 10 0 13 13 3 6 13 16 23 26 23
65 65 52 55 52 58 55 58 48 58 55 45 55 55 48 45 55 55 61 55 61 39 45 45 42 39 23 13 10 16 10 19 16 6 0 6 13 6 6 13 13 10 10
68 55 58 55 55 52 55 48 39 42 32 48 52 55 52 52 55 55 61 61 48 35 48 35 35 35 35 19 16 16 6 10 3 6 6 3 3 10 10 0 3 10 6
61 55 52 52 52 48 52 48 55 39 42 35 45 55 58 55 58 61 61 58 52 35 39 39 35 35 29 19 16 10 6 3 3 6 10 3 0 0 6 10 10 3 6
61 58 52 48 42 42 42 42 58 48 48 48 55 58 58 61 65 58 58 61 58 45 45 48 42 39 35 23 29 16 13 6 6 3 3 6 0 0 3 10 6 0 3

GEFSSE_con_cape1000_144.txt.gz
Probability
45 77 100 100 100 100 100 100 100 100 100 100 100 100 100 100 100 100 100 100 100 94 87 87 87 90 87 87 87 90 90 90 87 87 87 84 87 90 87 84 84 81 90
58 90 100 100 100 100 100 100 100 100 100 100 100 100 100 100 100 100 100 100 100 97 97 87 90 90 87 90 90 84 90 87 90 84 84 77 84 87 87 90 94 84 94
65 97 100 100 100 100 100 100 100 100 100 100 100 100 100 100 100 97 97 100 100 97 97 94 90 90 94 94 87 87 84 90 84 87 87 52 71 94 94 97 97 97 94
61 94 100 100 100 100 100 100 100 100 100 100 100 100 100 100 100 100 97 100 100 100 100 94 94 90 90 87 84 90 87 81 77 81 55 35 55 87 94 97 94 97 94
87 97 100 100 100 100 100 100 100 100 100 100 100 100 100 100 100 100 100 100 100 100 97 97 94 90 94 87 87 77 74 74 68 71 61 74 81 94 94 94 94 97 90
97 97 100 100 100 100 100 100 100 100 100 100 100 100 100 100 100 100 100 100 100 97 97 97 94 94 94 94 74 74 65 68 74 65 74 71 81 94 94 94 94 90 90
97 97 100 100 100 100 100 100 100 100 100 100 100 100 100 100 100 97 97 94 94 97 97 90 90 94 97 81 68 55 61 81 77 65 81 77 87 94 94 94 90 87 84
97 97 100 100 100 100 100 100 100 100 100 100 100 100 100 100 100 97 97 97 90 94 97 84 90 94 94 84 61 55 74 74 74 58 65 81 97 97 94 94 87 87 84
100 100 100 100 100 100 100 100 100 100 100 100 100 100 100 100 100 100 97 94 94 94 90 84 87 87 81 74 65 65 77 97 65 58 45 74 97 97 94 94 87 87 87
100 100 100 100 100 100 100 100 100 100 100 100 100 100 100 100 100 97 100 97 94 90 84 87 81 74 71 74 68 61 74 81 48 48 42 77 97 97 87 84 84 81 87
97 97 97 97 97 100 100 100 100 100 100 100 100 97 100 100 100 97 90 90 90 77 81 81 74 81 81 74 61 61 68 61 39 35 42 84 94 90 77 84 84 74 81
94 90 94 94 94 94 97 97 97 97 100 97 97 100 100 100 100 94 94 90 87 71 71 77 77 71 71 48 61 77 65 42 48 45 58 97 94 94 84 87 84 84 87
97 94 87 87 94 94 94 94 97 94 94 94 97 97 97 97 97 97 87 90 87 77 74 71 71 55 58 74 65 68 55 29 23 29 71 97 97 90 81 81 84 84 81
94 90 87 87 90 90 90 90 94 90 94 94 97 97 97 97 97 100 100 97 94 87 84 77 81 68 65 58 65 58 45 55 45 35 84 97 94 90 87 77 81 84 87
94 94 87 87 87 94 90 90 90 87 87 87 97 97 97 97 97 94 94 97 94 90 84 90 81 84 81 65 52 52 65 55 65 39 52 94 94 84 77 68 58 74 77
90 90 87 90 90 94 90 90 90 87 87 87 97 97 97 97 100 97 97 97 97 84 90 87 87 84 84 87 74 74 68 55 61 61 48 90 94 94 81 71 61 48 55
87 87 87 87 81 87 87 84 90 87 84 94 90 94 87 97 97 100 97 94 97 87 84 87 81 84 87 74 87 81 68 74 71 61 52 55 71 84 77 81 77 68 58
90 90 84 77 84 81 84 87 87 87 87 87 90 90 90 90 90 97 94 87 90 81 90 90 81 81 81 77 87 81 71 77 58 74 68 61 55 32 77 81 81 74 74
94 87 81 81 81 84 84 84 81 87 87 84 84 84 90 90 90 90 97 94 81 77 87 68 84 77 84 81 71 74 71 71 65 52 52 58 58 55 48 68 84 74 71
84 84 84 84 87 84 81 74 71 77 74 77 77 81 84 90 94 97 97 81 77 77 84 87 77 87 87 90 32 48 71 61 68 65 45 52 61 55 48 19 58 52 68
90 84 84 84 84 77 74 65 68 68 74 65 74 81 84 94 94 97 94 87 74 77 74 74 77 74 81 84 65 58 55 45 55 74 55 45 39 45 58 45 35 32 35
90 87 87 87 84 77 77 71 68 77 71 68 74 71 74 90 84 65 81 77 71 81 71 77 74 74 71 68 74 48 32 42 58 23 65 55 42 58 52 61 71 74 42
94 84 84 84 87 77 74 68 65 71 77 74 71 84 77 71 77 74 77 77 74 81 74 71 81 68 55 65 55 42 23 10 23 26 32 19 48 42 35 45 52 65 58
84 77 84 84 81 81 77 68 65 65 55 68 71 77 77 68 77 74 74 74 77 77 87 68 61 77 68 61 55 55 42 52 26 16 26 32 35 48 39 19 16 39 52
74 71 81 84 84 84 74 74 81 68 68 71 74 77 77 71 68 68 77 74 81 87 84 77 65 77 77 71 68 55 39 52 29 26 13 19 29 35 42 35 39 29 32
71 71 71 87 84 77 71 68 81 74 74 68 74 68 71 77 74 65 74 77 81 81 74 74 65 52 74 68 77 74 48 45 23 32 19 23 23 39 32 52 42 39 29